Weather reports worldwide

Advertisment
Almeria, Spain (8487): temperature & dewpoint: 16.02.2019 22:00:00 - 22.02.2019 22:00:00 (CET)Almeria, Spain (8487): wind speed: 16.02.2019 22:00:00 - 22.02.2019 22:00:00 (CET)Almeria, Spain (8487): wind direction: 16.02.2019 22:00:00 - 22.02.2019 22:00:00 (CET)Almeria, Spain (8487): reduced air pressure: 16.02.2019 22:00:00 - 22.02.2019 22:00:00 (CET)Almeria, Spain (8487): visibility: 16.02.2019 22:00:00 - 22.02.2019 22:00:00 (CET)
Date & Time tt [°C] td [°C] ff [km/h] ff [kn] dd ppp [hPa] vv [km]
22.02.2019 22:00:00 11,0 8,7 4 2 N 1029,9 20
22.02.2019 21:00:00 11,1 9,2 9 5 NNW 1029,9 -
22.02.2019 20:00:00 12,1 9,8 5 3 WNW 1030,2 -
22.02.2019 19:00:00 14,1 10,8 8 4 SW 1030,0 25
22.02.2019 18:00:00 15,6 11,2 9 5 SSW 1029,5 -
22.02.2019 17:00:00 16,3 11,0 9 5 S 1029,6 -
22.02.2019 16:00:00 16,7 10,7 13 7 SSW 1029,6 30
22.02.2019 15:00:00 16,7 10,8 13 7 SSW 1030,1 -
22.02.2019 14:00:00 16,3 10,2 15 8 SSW 1030,7 -
22.02.2019 13:00:00 16,6 10,1 13 7 SSW 1031,7 27
22.02.2019 12:00:00 15,8 8,5 11 6 SSE 1032,3 -
22.02.2019 11:00:00 15,7 5,6 8 4 S 1032,7 -
22.02.2019 10:00:00 13,7 4,3 5 3 WNW 1032,8 25
22.02.2019 09:00:00 10,3 4,6 9 5 NNW 1032,8 -
22.02.2019 08:00:00 7,7 3,9 13 7 NNW 1032,5 -
22.02.2019 07:00:00 7,1 4,4 9 5 NNW 1031,9 25
22.02.2019 06:00:00 7,5 5,0 9 5 NNW 1031,6 -
22.02.2019 05:00:00 9,2 5,0 13 7 NNW 1031,6 -
22.02.2019 04:00:00 9,1 5,1 13 7 NNW 1032,0 -
22.02.2019 03:00:00 10,2 5,6 11 6 NNW 1032,1 -
22.02.2019 02:00:00 9,7 5,7 11 6 NNW 1032,2 -
22.02.2019 01:00:00 9,4 6,1 9 5 N 1032,0 -
22.02.2019 00:00:00 9,8 5,8 4 2 NNE 1032,1 -
21.02.2019 23:00:00 11,6 6,5 5 3 WNW 1032,2 -
21.02.2019 22:00:00 11,8 6,1 5 3 NNE 1031,5 30
21.02.2019 21:00:00 12,5 7,8 13 7 NE 1030,7 -
21.02.2019 20:00:00 13,2 7,8 15 8 ENE 1030,1 -
21.02.2019 19:00:00 14,5 7,1 21 11 ENE 1029,2 45
21.02.2019 18:00:00 16,3 7,0 22 12 E 1028,6 -
21.02.2019 17:00:00 17,7 7,1 24 13 E 1028,5 -
21.02.2019 16:00:00 18,6 7,3 22 12 E 1028,3 40
21.02.2019 15:00:00 19,1 7,2 21 11 E 1028,3 -
21.02.2019 14:00:00 18,7 7,2 16 9 E 1028,8 -
21.02.2019 13:00:00 18,2 7,0 24 13 E 1029,3 40
21.02.2019 12:00:00 17,0 6,6 26 14 ENE 1029,2 -
21.02.2019 11:00:00 16,0 6,7 24 13 ENE 1029,0 -
21.02.2019 10:00:00 12,9 4,5 13 7 NNW 1029,3 40
21.02.2019 09:00:00 10,1 3,9 16 9 NNW 1028,8 -
21.02.2019 08:00:00 8,7 3,7 16 9 NNW 1028,1 -
21.02.2019 07:00:00 9,6 4,4 16 9 NNW 1027,6 30
21.02.2019 06:00:00 8,3 4,5 9 5 NNW 1027,2 -
21.02.2019 05:00:00 10,0 5,6 15 8 N 1027,0 -
21.02.2019 04:00:00 10,2 6,2 15 8 NNW 1027,0 -
21.02.2019 03:00:00 9,7 6,4 9 5 NW 1027,2 -
21.02.2019 02:00:00 8,8 6,4 9 5 NNE 1027,0 -
21.02.2019 01:00:00 10,2 7,0 11 6 N 1027,2 -
21.02.2019 00:00:00 10,6 6,5 5 3 N 1027,2 -
20.02.2019 23:00:00 11,1 6,8 9 5 N 1027,2 -
20.02.2019 22:00:00 12,0 7,9 13 7 NE 1027,0 30
20.02.2019 21:00:00 12,3 8,4 13 7 ENE 1026,2 -
20.02.2019 20:00:00 12,8 7,9 13 7 ENE 1025,8 -
20.02.2019 19:00:00 14,2 8,2 13 7 E 1025,1 35
20.02.2019 18:00:00 15,7 8,0 16 9 E 1024,1 -
20.02.2019 17:00:00 17,2 7,8 16 9 E 1023,7 -
20.02.2019 16:00:00 17,7 7,7 18 10 ESE 1023,6 35
20.02.2019 15:00:00 18,5 7,1 15 8 E 1023,8 -
20.02.2019 14:00:00 18,5 7,5 16 9 ESE 1024,3 -
20.02.2019 13:00:00 18,3 6,2 18 10 E 1024,9 35
20.02.2019 12:00:00 17,0 6,6 16 9 ENE 1025,2 -
20.02.2019 11:00:00 15,8 6,7 8 4 NNE 1025,0 -
20.02.2019 10:00:00 12,3 5,5 18 10 NW 1024,9 40
20.02.2019 09:00:00 10,3 5,5 16 9 NNW 1024,3 -
20.02.2019 08:00:00 9,0 5,6 15 8 NNW 1023,3 -
20.02.2019 07:00:00 9,1 5,7 15 8 NNW 1022,7 30
20.02.2019 06:00:00 8,3 5,9 11 6 NNW 1022,4 -
20.02.2019 05:00:00 8,9 6,1 0 0 N 1022,2 -
20.02.2019 04:00:00 10,0 6,5 8 4 S 1022,2 -
20.02.2019 03:00:00 10,4 7,6 4 2 S 1022,2 -
20.02.2019 02:00:00 9,2 6,3 5 3 E 1022,0 -
20.02.2019 01:00:00 10,7 7,2 8 4 NNW 1022,1 -
20.02.2019 00:00:00 11,9 7,9 9 5 NNE 1022,1 -
19.02.2019 23:00:00 11,9 7,8 5 3 NE 1022,1 -
19.02.2019 22:00:00 12,5 8,0 5 3 N 1021,5 -
19.02.2019 21:00:00 13,0 8,3 13 7 NE 1020,9 -
19.02.2019 20:00:00 13,6 9,0 18 10 ENE 1020,4 -
19.02.2019 19:00:00 14,4 8,7 16 9 ENE 1019,8 40
19.02.2019 18:00:00 16,3 8,3 15 8 E 1019,1 -
19.02.2019 17:00:00 17,7 8,8 15 8 E 1018,9 -
19.02.2019 16:00:00 18,5 7,2 16 9 E 1018,9 40
19.02.2019 15:00:00 19,0 7,0 15 8 ESE 1019,1 -
19.02.2019 14:00:00 18,3 6,5 16 9 E 1019,6 -
19.02.2019 13:00:00 18,4 5,9 16 9 E 1020,4 40
19.02.2019 12:00:00 17,8 3,7 16 9 E 1020,7 -
19.02.2019 11:00:00 16,6 2,5 9 5 SSE 1020,7 -
19.02.2019 10:00:00 13,4 1,4 11 6 N 1020,8 40
19.02.2019 09:00:00 11,5 1,1 16 9 NW 1020,3 -
19.02.2019 08:00:00 10,1 1,5 13 7 NNW 1019,4 -
19.02.2019 07:00:00 10,1 2,0 15 8 NNW 1019,0 50
19.02.2019 06:00:00 9,9 1,8 13 7 NNW 1018,8 -
19.02.2019 05:00:00 10,3 2,9 16 9 NNW 1018,5 -
19.02.2019 04:00:00 11,7 3,3 16 9 NNW 1018,5 -
19.02.2019 03:00:00 12,6 4,0 13 7 NNW 1018,6 -
19.02.2019 02:00:00 12,6 4,5 9 5 NNE 1018,5 -
19.02.2019 01:00:00 12,0 5,2 9 5 NE 1018,4 -
19.02.2019 00:00:00 13,9 6,7 16 9 NW 1018,4 -
18.02.2019 23:00:00 13,6 8,0 13 7 NNW 1018,5 -
18.02.2019 22:00:00 12,6 4,8 13 7 ENE 1018,7 30
18.02.2019 21:00:00 15,0 4,1 13 7 NNE 1018,2 -
18.02.2019 20:00:00 14,6 4,8 11 6 NNE 1017,9 -
18.02.2019 19:00:00 15,7 6,4 34 18 ENE 1017,2 30
18.02.2019 18:00:00 17,0 5,3 35 19 NE 1016,7 -
18.02.2019 17:00:00 17,9 6,6 37 20 ENE 1016,4 -
18.02.2019 16:00:00 19,4 4,3 37 20 ENE 1016,6 30
18.02.2019 15:00:00 19,8 5,4 37 20 ENE 1017,0 -
18.02.2019 14:00:00 19,9 4,8 35 19 ENE 1017,6 -
18.02.2019 13:00:00 19,7 4,9 34 18 NE 1018,5 30
18.02.2019 12:00:00 18,9 4,9 29 16 ENE 1019,1 -
18.02.2019 11:00:00 16,6 5,8 15 8 NW 1019,3 -
18.02.2019 10:00:00 15,1 6,1 15 8 NNW 1019,6 30
18.02.2019 09:00:00 12,7 4,4 16 9 NNW 1019,4 -
18.02.2019 08:00:00 11,3 3,6 18 10 NNW 1018,9 -
18.02.2019 07:00:00 11,2 3,2 21 11 NNW 1019,1 40
18.02.2019 06:00:00 11,1 3,4 22 12 NNW 1019,4 -
18.02.2019 05:00:00 11,4 4,1 21 11 NW 1019,6 -
18.02.2019 04:00:00 11,2 5,5 24 13 NW 1020,1 -
18.02.2019 03:00:00 11,5 6,6 22 12 NNW 1020,9 -
18.02.2019 02:00:00 12,0 7,5 22 12 NW 1021,4 -
18.02.2019 01:00:00 12,1 8,0 15 8 NNW 1021,7 -
18.02.2019 00:00:00 12,3 8,1 16 9 NNW 1021,7 -
17.02.2019 23:00:00 13,0 8,5 16 9 NW 1022,2 -
17.02.2019 22:00:00 13,6 7,8 9 5 NNE 1022,1 50
17.02.2019 21:00:00 13,2 6,5 13 7 ENE 1022,0 -
17.02.2019 20:00:00 13,8 8,6 24 13 ENE 1021,4 -
17.02.2019 19:00:00 14,7 8,9 21 11 ENE 1021,2 50
17.02.2019 18:00:00 16,8 8,7 29 16 ENE 1021,0 -
17.02.2019 17:00:00 18,3 8,3 29 16 E 1021,2 -
17.02.2019 16:00:00 19,2 7,9 31 17 E 1021,5 50
17.02.2019 15:00:00 19,6 6,7 31 17 E 1021,9 -
17.02.2019 14:00:00 19,2 6,5 34 18 ENE 1022,7 -
17.02.2019 13:00:00 18,6 6,8 31 17 ENE 1023,7 30
17.02.2019 12:00:00 17,5 6,4 16 9 NE 1024,6 -
17.02.2019 11:00:00 15,3 5,8 13 7 WNW 1024,6 -
17.02.2019 10:00:00 13,9 5,5 13 7 NW 1024,8 50
17.02.2019 09:00:00 12,0 4,2 13 7 NW 1024,8 -
17.02.2019 08:00:00 11,5 3,8 11 6 N 1024,4 -
17.02.2019 07:00:00 12,3 3,2 15 8 NW 1024,0 50
17.02.2019 06:00:00 11,9 3,6 18 10 NW 1023,6 -
17.02.2019 05:00:00 12,2 3,7 18 10 NNW 1023,5 -
17.02.2019 04:00:00 12,1 4,3 24 13 NNW 1023,5 -
17.02.2019 03:00:00 11,9 3,6 24 13 NW 1024,0 -
17.02.2019 02:00:00 12,1 3,6 22 12 NW 1024,6 -
17.02.2019 01:00:00 12,2 3,9 16 9 NNW 1024,8 -
17.02.2019 00:00:00 11,1 5,8 4 2 E 1025,3 -
16.02.2019 23:00:00 12,0 7,2 15 8 ENE 1025,7 -
16.02.2019 22:00:00 12,8 7,7 28 15 ENE 1025,8 40

tt = temperature
td = dewpoint
ff = wind speed
dd = wind direction
ppp = reduced air pressure
vv = visibility

Next stations